Altoona, PA

1:50 AM EST on December 12, 2019 (GMT -0500)
Altoona-Blair County

Weather History for KAOO - November, 2019

Change the Weather History Date:

Monday, November 11, 2019

  Actual Average Record
Temperature  
Mean Temperature 53 °F 43 °F  
Max Temperature 63 °F 52 °F 70 °F (2006)
Min Temperature 42 °F 35 °F 16 °F (2017)
Degree Days  
Heating Degree Days 12 22  
Month to date heating degree days 279 220  
Since 1 July heating degree days 649 835  
Cooling Degree Days 0 0  
Month to date cooling degree days 0 0  
Year to date cooling degree days 763 531  
Growing Degree Days 4 (Base 50)    
Moisture  
Dew Point 36 °F    
Average Humidity 55    
Maximum Humidity 70    
Minimum Humidity 39    
Precipitation  
Precipitation 0.00 in 0.10 in 0.83 in (1995)
Month to date precipitation 0.12 1.14  
Year to date precipitation 35.87 31.13  
Sea Level Pressure  
Sea Level Pressure 29.92 in    
Wind  
Wind Speed 8 mph (SSW)    
Max Wind Speed 24 mph    
Max Gust Speed 30 mph    
Visibility 10 miles    
Events      
T = Trace of Precipitation, MM = Missing Value Source: NWS Daily Summary

Daily Weather History Graph

Daily Weather History Graph

Search for Another Location

Airport or City:

Astronomy

Nov. 11, 2019 Rise Set
Actual Time 6:54 AM EST 4:59 PM EST
Civil Twilight 6:25 AM EST 5:28 PM EST
Nautical Twilight 5:52 AM EST 6:01 PM EST
Astronomical Twilight 5:20 AM EST 6:33 PM EST
Moon 4:54 PM EST (11/11) 5:43 AM EST (11/11)
Length of Visible Light 11h 03m
Length of Day
10h 05m
Waxing Gibbous, 99% of the Moon is Illuminated
Nov 11
Waxing Gibbous
Nov 12
Full
Nov 19
Last Quarter
Nov 26
New
Dec 4
First Quarter

Hourly Weather History & Observations

Time (EST) Temp. Windchill Dew Point Humidity Pressure Visibility Wind Dir Wind Speed Gust Speed Precip Events Conditions
12:53 AM 46.0 °F - 32.0 °F 58% 30.01 in 10.0 mi Calm Calm - N/A   Overcast
1:53 AM 44.1 °F 42.5 °F 35.1 °F 71% 30.02 in 10.0 mi South 3.5 mph - N/A   Overcast
2:53 AM 45.0 °F - 36.0 °F 71% 30.02 in 10.0 mi Calm Calm - N/A   Overcast
3:53 AM 46.0 °F 41.9 °F 35.1 °F 66% 30.02 in 10.0 mi SW 8.1 mph - N/A   Overcast
4:53 AM 46.0 °F 43.1 °F 35.1 °F 66% 30.03 in 10.0 mi WNW 5.8 mph - N/A   Overcast
5:53 AM 46.9 °F - 34.0 °F 61% 30.03 in 10.0 mi West 4.6 mph - N/A   Overcast
6:53 AM 45.0 °F 43.5 °F 33.1 °F 63% 30.04 in 10.0 mi ESE 3.5 mph - N/A   Clear
7:53 AM 46.9 °F - 34.0 °F 61% 30.05 in 10.0 mi Calm Calm - N/A   Clear
9:53 AM 54.0 °F - 37.0 °F 53% 30.05 in 10.0 mi SSW 9.2 mph - N/A   Scattered Clouds
10:53 AM 55.9 °F - 37.9 °F 51% 30.03 in 10.0 mi SSW 9.2 mph - N/A   Overcast
11:53 AM 59.0 °F - 39.0 °F 48% 30.00 in 10.0 mi SSW 11.5 mph - N/A   Clear
12:53 PM 61.0 °F - 39.9 °F 46% 29.95 in 10.0 mi SSW 11.5 mph - N/A   Clear
1:53 PM 63.0 °F - 37.9 °F 40% 29.91 in 10.0 mi South 13.8 mph - N/A   Clear
2:53 PM 62.1 °F - 37.0 °F 39% 29.88 in 10.0 mi South 15.0 mph - N/A   Clear
3:53 PM 61.0 °F - 37.0 °F 41% 29.86 in 10.0 mi South 8.1 mph - N/A   Clear
4:53 PM 59.0 °F - 37.0 °F 44% 29.82 in 10.0 mi South 10.4 mph 16.1 mph N/A   Clear
5:53 PM 55.0 °F - 37.0 °F 51% 29.83 in 10.0 mi SSW 6.9 mph - N/A   Clear
6:53 PM 54.0 °F - 37.0 °F 53% 29.84 in 10.0 mi WSW 6.9 mph - N/A   Clear
7:53 PM 50.0 °F - 36.0 °F 59% 29.81 in 10.0 mi South 6.9 mph - N/A   Clear
8:53 PM 54.0 °F - 37.0 °F 53% 29.78 in 10.0 mi SSW 8.1 mph - N/A   Clear
9:53 PM 55.0 °F - 37.0 °F 51% 29.76 in 10.0 mi SSW 9.2 mph - N/A   Overcast
10:53 PM 57.0 °F - 36.0 °F 45% 29.74 in 10.0 mi SSW 12.7 mph - N/A   Overcast
11:53 PM 57.0 °F - 37.0 °F 47% 29.73 in 10.0 mi West 11.5 mph - N/A   Overcast